| time (UTC) | temp F | wind direction | speed MPH | gust MPH | rain 1hr in | rain 24hr in | rain mn in | humidity % | barometer mb |
| 20260504031532 | 72 | 127 | 0.0 | 1.0 | 0.00 | 0.00 | 0.00 | 1 | 1016.8 |
| 20260504030027 | 72 | 153 | 0.0 | 1.0 | 0.00 | 0.00 | 0.00 | 1 | 1016.8 |
| 20260504024523 | 72 | 138 | 0.0 | 0.0 | 0.00 | 0.00 | 0.00 | 1 | 1016.8 |
| 20260504023018 | 72 | 155 | 0.0 | 0.0 | 0.00 | 0.00 | 0.00 | 1 | 1016.7 |
| 20260504021515 | 72 | 80 | 0.0 | 0.0 | 0.00 | 0.00 | 0.00 | 1 | 1016.3 |
| 20260504020009 | 72 | 127 | 0.0 | 0.0 | 0.00 | 0.00 | 0.00 | 3 | 1016.3 |
| 20260504014504 | 72 | 137 | 0.0 | 0.0 | 0.00 | 0.00 | 0.00 | 14 | 1016.2 |
| 20260504013106 | 73 | 171 | 0.0 | 0.0 | 0.00 | 0.00 | 0.00 | 19 | 1016.2 |
| 20260504011556 | 73 | 171 | 0.0 | 0.0 | 0.00 | 0.00 | 0.00 | 27 | 1016.0 |
| 20260504010051 | 73 | 301 | 0.0 | 0.0 | 0.00 | 0.00 | 0.00 | 39 | 1015.8 |
| 20260504004547 | 74 | 85 | 0.0 | 0.0 | 0.00 | 0.01 | 0.00 | 48 | 1015.5 |
| 20260504003046 | 74 | 204 | 0.0 | 0.0 | 0.00 | 0.01 | 0.00 | 53 | 1015.4 |
| 20260504001540 | 74 | 252 | 0.0 | 0.0 | 0.00 | 0.01 | 0.00 | 57 | 1015.3 |
| 20260504000037 | 74 | 121 | 0.0 | 0.0 | 0.00 | 0.01 | 0.00 | 58 | 1015.2 |
| 20260503234529 | 75 | 120 | 0.0 | 0.0 | 0.00 | 0.03 | 0.00 | 60 | 1015.1 |
| 20260503233025 | 76 | 167 | 0.0 | 0.0 | 0.00 | 0.03 | 0.00 | 62 | 1015.0 |
| 20260503231522 | 76 | 77 | 0.0 | 1.0 | 0.00 | 0.03 | 0.00 | 64 | 1015.0 |
| 20260503230021 | 76 | 57 | 0.0 | 1.0 | 0.00 | 0.03 | 0.00 | 64 | 1015.0 |
| 20260503224512 | 77 | 115 | 0.0 | 2.0 | 0.00 | 0.07 | 0.00 | 64 | 1014.8 |
| 20260503223007 | 76 | 108 | 0.0 | 1.0 | 0.00 | 0.07 | 0.00 | 64 | 1014.8 |
| 20260503221503 | 77 | 115 | 0.0 | 2.0 | 0.00 | 0.07 | 0.00 | 64 | 1014.9 |
| 20260503220059 | 77 | 104 | 0.0 | 2.0 | 0.00 | 0.07 | 0.00 | 64 | 1014.8 |
| 20260503214554 | 77 | 112 | 0.0 | 1.0 | 0.00 | 0.20 | 0.00 | 64 | 1014.8 |
| 20260503213059 | 77 | 149 | 0.0 | 1.0 | 0.00 | 0.20 | 0.00 | 63 | 1014.9 |
| 20260503211604 | 77 | 354 | 0.0 | 2.0 | 0.00 | 0.20 | 0.00 | 64 | 1014.9 |
| 20260503210043 | 78 | 101 | 0.0 | 4.0 | 0.00 | 0.20 | 0.00 | 63 | 1015.0 |
| 20260503204540 | 79 | 155 | 0.0 | 3.0 | 0.00 | 0.39 | 0.00 | 63 | 1015.1 |
| 20260503203044 | 78 | 70 | 0.0 | 2.0 | 0.00 | 0.39 | 0.00 | 63 | 1015.4 |
| 20260503201531 | 78 | 112 | 0.0 | 3.0 | 0.00 | 0.39 | 0.00 | 63 | 1015.5 |
| 20260503200034 | 77 | 111 | 1.0 | 3.0 | 0.00 | 0.39 | 0.00 | 63 | 1015.7 |
| 20260503194523 | 77 | 144 | 0.0 | 4.0 | 0.00 | 0.39 | 0.00 | 63 | 1015.8 |
| 20260503193023 | 77 | 89 | 0.0 | 3.0 | 0.00 | 0.39 | 0.00 | 62 | 1015.9 |
| 20260503191518 | 76 | 121 | 0.0 | 2.0 | 0.00 | 0.39 | 0.00 | 61 | 1016.3 |
| 20260503190014 | 75 | 65 | 0.0 | 3.0 | 0.00 | 0.39 | 0.00 | 59 | 1016.5 |
| 20260503184505 | 75 | 70 | 0.0 | 3.0 | 0.00 | 0.39 | 0.00 | 53 | 1016.8 |
| 20260503183001 | 74 | 110 | 0.0 | 3.0 | 0.00 | 0.39 | 0.00 | 44 | 1017.0 |
| 20260503181614 | 73 | 132 | 0.0 | 2.0 | 0.00 | 0.39 | 0.00 | 38 | 1017.2 |
| 20260503180111 | 72 | 85 | 0.0 | 4.0 | 0.00 | 0.39 | 0.00 | 35 | 1017.2 |
| 20260503174555 | 72 | 241 | 0.0 | 3.0 | 0.00 | 0.39 | 0.00 | 30 | 1017.4 |
| 20260503173055 | 71 | 81 | 0.0 | 3.0 | 0.00 | 0.39 | 0.00 | 29 | 1017.6 |
| 20260503171539 | 72 | 191 | 1.0 | 3.0 | 0.00 | 0.39 | 0.00 | 32 | 1017.5 |
| 20260503150109 | 68 | 66 | 0.0 | 3.0 | 0.00 | 0.39 | 0.00 | 1 | 1017.9 |
| 20260503081503 | 0 | 0.0 | 0.0 | 0.00 | 0.39 | 0.00 | 1014.2 | ||
| 20260503080106 | 0 | 0.0 | 0.0 | 0.00 | 0.39 | 0.00 | 1013.7 | ||
| 20260503071546 | 0 | 0.0 | 0.0 | 0.00 | 0.39 | 0.00 | 1013.6 | ||
| 20260503054518 | 0 | 0.0 | 0.0 | 0.00 | 0.39 | 0.00 | 1014.0 | ||
| 20260503053017 | 0 | 0.0 | 0.0 | 0.00 | 0.39 | 0.00 | 1014.1 | ||
| 20260503051521 | 0 | 0.0 | 0.0 | 0.00 | 0.39 | 0.00 | 1014.0 | ||
| 20260503050005 | 0 | 0.0 | 0.0 | 0.00 | 0.39 | 0.00 | 1014.2 | ||
| 20260503044611 | 0 | 0.0 | 0.0 | 0.00 | 0.39 | 0.00 | 1014.4 | ||
| 20260503043059 | 0 | 0.0 | 0.0 | 0.00 | 0.39 | 0.00 | 1014.3 | ||
| 20260503041552 | 0 | 0.0 | 0.0 | 0.00 | 0.39 | 0.00 | 1014.3 | ||
| 20260503040052 | 0 | 0.0 | 0.0 | 0.00 | 0.39 | 0.00 | 1014.2 | ||
| 20260503034543 | 0 | 0.0 | 0.0 | 0.00 | 0.39 | 0.39 | 1013.9 | ||
| 20260503033040 | 0 | 0.0 | 0.0 | 0.00 | 0.39 | 0.39 | 1013.5 |